Time,TemperatureF,DewpointF,PressureIn,WindDirection,WindDirectionDegrees,WindSpeedMPH,WindSpeedGustMPH,Humidity,HourlyPrecipIn,Conditions,Clouds,dailyrainin,SoftwareType,DateUTC
2013-04-26 00:03:00,46.0,41.0,30.26,SSE,152,0.0,-999.0,84,-99.99,,,-99.99,,2013-04-26 04:03:00,
2013-04-26 00:12:00,46.0,41.0,30.26,SSE,152,0.0,-999.0,84,-99.99,,,-99.99,,2013-04-26 04:12:00,
2013-04-26 00:23:00,46.0,42.0,30.27,SSE,152,0.0,-999.0,85,-99.99,,,-99.99,,2013-04-26 04:23:00,
2013-04-26 00:32:00,46.0,41.0,30.27,SSE,152,0.0,-999.0,84,-99.99,,,-99.99,,2013-04-26 04:32:00,
2013-04-26 00:43:00,46.0,41.0,30.27,SSE,152,0.0,-999.0,84,-99.99,,,-99.99,,2013-04-26 04:43:00,
2013-04-26 00:52:00,47.0,42.0,30.28,SSE,152,0.0,-999.0,84,-99.99,,,-99.99,,2013-04-26 04:52:00,
2013-04-26 01:02:00,48.0,42.0,30.28,SSE,152,0.0,-999.0,80,-99.99,,,-99.99,,2013-04-26 05:02:00,
2013-04-26 01:13:00,48.0,42.0,30.28,SSE,152,0.0,-999.0,80,-99.99,,,-99.99,,2013-04-26 05:13:00,
2013-04-26 01:22:00,49.0,42.0,30.28,SSE,152,0.0,-999.0,76,-99.99,,,-99.99,,2013-04-26 05:22:00,
2013-04-26 01:32:00,49.0,42.0,30.27,SSE,152,0.0,-999.0,77,-99.99,,,-99.99,,2013-04-26 05:32:00,
2013-04-26 01:42:00,49.0,42.0,30.27,SSE,152,0.0,-999.0,77,-99.99,,,-99.99,,2013-04-26 05:42:00,
2013-04-26 01:52:00,48.0,41.0,30.27,SSE,152,0.0,-999.0,77,-99.99,,,-99.99,,2013-04-26 05:52:00,
2013-04-26 02:02:00,47.0,41.0,30.26,SSE,152,0.0,-999.0,79,-99.99,,,-99.99,,2013-04-26 06:02:00,
2013-04-26 02:11:00,47.0,41.0,30.26,SSE,152,0.0,-999.0,79,-99.99,,,-99.99,,2013-04-26 06:11:00,
2013-04-26 02:22:00,46.0,41.0,30.26,SSE,152,0.0,-999.0,81,-99.99,,,-99.99,,2013-04-26 06:22:00,
2013-04-26 02:32:00,46.0,41.0,30.27,SSE,152,0.0,-999.0,83,-99.99,,,-99.99,,2013-04-26 06:32:00,
2013-04-26 02:42:00,46.0,41.0,30.27,SSE,152,0.0,-999.0,83,-99.99,,,-99.99,,2013-04-26 06:42:00,
2013-04-26 02:52:00,45.0,40.0,30.27,SSE,152,0.0,-999.0,84,-99.99,,,-99.99,,2013-04-26 06:52:00,
2013-04-26 03:02:00,44.0,40.0,30.27,SSE,152,0.0,-999.0,86,-99.99,,,-99.99,,2013-04-26 07:02:00,
2013-04-26 03:11:00,44.0,40.0,30.27,SSE,152,0.0,-999.0,86,-99.99,,,-99.99,,2013-04-26 07:11:00,
2013-04-26 03:22:00,43.0,39.0,30.27,SSE,152,0.0,-999.0,87,-99.99,,,-99.99,,2013-04-26 07:22:00,
2013-04-26 03:32:00,43.0,40.0,30.27,SSE,152,0.0,-999.0,88,-99.99,,,-99.99,,2013-04-26 07:32:00,
2013-04-26 03:42:00,43.0,40.0,30.27,SSE,152,0.0,-999.0,88,-99.99,,,-99.99,,2013-04-26 07:42:00,
2013-04-26 03:52:00,42.0,39.0,30.27,SSE,152,0.0,-999.0,89,-99.99,,,-99.99,,2013-04-26 07:52:00,
2013-04-26 04:03:00,42.0,39.0,30.28,SSE,152,0.0,-999.0,90,-99.99,,,-99.99,,2013-04-26 08:03:00,
2013-04-26 04:11:00,42.0,39.0,30.28,SSE,152,0.0,-999.0,90,-99.99,,,-99.99,,2013-04-26 08:11:00,
2013-04-26 04:22:00,41.0,38.0,30.28,SSE,152,0.0,-999.0,90,-99.99,,,-99.99,,2013-04-26 08:22:00,
2013-04-26 04:32:00,41.0,39.0,30.28,SSE,152,0.0,-999.0,91,-99.99,,,-99.99,,2013-04-26 08:32:00,
2013-04-26 04:42:00,41.0,39.0,30.28,SSE,152,0.0,-999.0,91,-99.99,,,-99.99,,2013-04-26 08:42:00,
2013-04-26 04:52:00,40.0,38.0,30.29,SSE,152,0.0,-999.0,92,-99.99,,,-99.99,,2013-04-26 08:52:00,
2013-04-26 05:02:00,40.0,38.0,30.30,SSE,152,0.0,-999.0,92,-99.99,,,-99.99,,2013-04-26 09:02:00,
2013-04-26 05:11:00,40.0,38.0,30.30,SSE,152,0.0,-999.0,92,-99.99,,,-99.99,,2013-04-26 09:11:00,
2013-04-26 05:22:00,40.0,38.0,30.31,SSE,152,0.0,-999.0,92,-99.99,,,-99.99,,2013-04-26 09:22:00,
2013-04-26 05:33:00,40.0,38.0,30.32,SSE,152,0.0,-999.0,93,-99.99,,,-99.99,,2013-04-26 09:33:00,
2013-04-26 05:43:00,40.0,38.0,30.32,SSE,152,0.0,-999.0,93,-99.99,,,-99.99,,2013-04-26 09:43:00,
2013-04-26 05:53:00,39.0,37.0,30.32,SSE,152,0.0,-999.0,94,-99.99,,,-99.99,,2013-04-26 09:53:00,
2013-04-26 06:03:00,39.0,37.0,30.33,SSE,152,0.0,-999.0,94,-99.99,,,-99.99,,2013-04-26 10:03:00,
2013-04-26 06:12:00,39.0,37.0,30.33,SSE,152,0.0,-999.0,94,-99.99,,,-99.99,,2013-04-26 10:12:00,
2013-04-26 06:23:00,39.0,37.0,30.33,SSE,152,0.0,-999.0,94,-99.99,,,-99.99,,2013-04-26 10:23:00,
2013-04-26 06:33:00,39.0,37.0,30.34,SSE,152,0.0,-999.0,94,-99.99,,,-99.99,,2013-04-26 10:33:00,
2013-04-26 06:42:00,39.0,37.0,30.34,SSE,152,0.0,-999.0,94,-99.99,,,-99.99,,2013-04-26 10:42:00,
2013-04-26 06:52:00,39.0,38.0,30.35,SSE,152,0.0,-999.0,95,-99.99,,,-99.99,,2013-04-26 10:52:00,
2013-04-26 07:02:00,39.0,38.0,30.35,SSE,152,0.0,-999.0,95,-99.99,,,-99.99,,2013-04-26 11:02:00,
2013-04-26 07:11:00,39.0,38.0,30.35,SSE,152,0.0,-999.0,95,-99.99,,,-99.99,,2013-04-26 11:11:00,
2013-04-26 07:22:00,39.0,38.0,30.36,SSE,152,0.0,-999.0,95,-99.99,,,-99.99,,2013-04-26 11:22:00,
2013-04-26 07:32:00,40.0,39.0,30.37,SSE,152,0.0,-999.0,95,-99.99,,,-99.99,,2013-04-26 11:32:00,
2013-04-26 07:42:00,40.0,39.0,30.37,SSE,152,0.0,-999.0,95,-99.99,,,-99.99,,2013-04-26 11:42:00,
2013-04-26 07:52:00,41.0,40.0,30.37,SSE,152,0.0,-999.0,95,-99.99,,,-99.99,,2013-04-26 11:52:00,
2013-04-26 08:02:00,42.0,41.0,30.38,SSE,152,0.0,-999.0,96,-99.99,,,-99.99,,2013-04-26 12:02:00,
2013-04-26 08:11:00,42.0,41.0,30.38,SSE,152,0.0,-999.0,96,-99.99,,,-99.99,,2013-04-26 12:11:00,
2013-04-26 08:21:00,44.0,43.0,30.39,SSE,152,0.0,-999.0,96,-99.99,,,-99.99,,2013-04-26 12:21:00,
2013-04-26 08:32:00,46.0,43.0,30.39,SSE,152,0.0,-999.0,90,-99.99,,,-99.99,,2013-04-26 12:32:00,
2013-04-26 08:42:00,46.0,43.0,30.39,SSE,152,0.0,-999.0,90,-99.99,,,-99.99,,2013-04-26 12:42:00,
2013-04-26 08:52:00,48.0,43.0,30.39,North,350,1.0,-999.0,82,-99.99,,,-99.99,,2013-04-26 12:52:00,
2013-04-26 09:01:00,50.0,42.0,30.39,NNE,15,1.0,-999.0,73,-99.99,,,-99.99,,2013-04-26 13:01:00,
2013-04-26 09:11:00,50.0,42.0,30.39,NNE,15,1.0,-999.0,73,-99.99,,,-99.99,,2013-04-26 13:11:00,
2013-04-26 09:22:00,53.0,41.0,30.40,North,5,1.0,-999.0,64,-99.99,,,-99.99,,2013-04-26 13:22:00,
2013-04-26 09:32:00,54.0,41.0,30.41,NW,320,1.0,-999.0,61,-99.99,,,-99.99,,2013-04-26 13:32:00,
2013-04-26 09:42:00,54.0,41.0,30.41,NW,320,1.0,-999.0,61,-99.99,,,-99.99,,2013-04-26 13:42:00,
2013-04-26 09:52:00,55.0,40.0,30.41,NNE,14,1.0,-999.0,57,-99.99,,,-99.99,,2013-04-26 13:52:00,
2013-04-26 10:01:00,57.0,39.0,30.40,NE,38,1.0,-999.0,51,-99.99,,,-99.99,,2013-04-26 14:01:00,
2013-04-26 10:11:00,57.0,39.0,30.40,NE,38,1.0,-999.0,51,-99.99,,,-99.99,,2013-04-26 14:11:00,
2013-04-26 10:21:00,59.0,40.0,30.41,NE,34,2.0,-999.0,49,-99.99,,,-99.99,,2013-04-26 14:21:00,
2013-04-26 10:32:00,60.0,40.0,30.41,NNE,30,2.0,-999.0,47,-99.99,,,-99.99,,2013-04-26 14:32:00,
2013-04-26 10:42:00,60.0,40.0,30.41,NNE,30,2.0,-999.0,47,-99.99,,,-99.99,,2013-04-26 14:42:00,
2013-04-26 10:52:00,61.0,41.0,30.41,North,355,1.0,-999.0,47,-99.99,,,-99.99,,2013-04-26 14:52:00,
2013-04-26 11:01:00,62.0,40.0,30.41,NW,309,2.0,-999.0,45,-99.99,,,-99.99,,2013-04-26 15:01:00,
2013-04-26 11:12:00,62.0,40.0,30.41,NW,309,2.0,-999.0,45,-99.99,,,-99.99,,2013-04-26 15:12:00,
2013-04-26 11:22:00,64.0,42.0,30.41,NE,36,1.0,-999.0,44,-99.99,,,-99.99,,2013-04-26 15:22:00,
2013-04-26 11:33:00,66.0,44.0,30.41,WNW,296,1.0,-999.0,45,-99.99,,,-99.99,,2013-04-26 15:33:00,
2013-04-26 11:43:00,66.0,44.0,30.41,WNW,296,1.0,-999.0,45,-99.99,,,-99.99,,2013-04-26 15:43:00,
2013-04-26 11:53:00,66.0,43.0,30.40,NNW,342,2.0,-999.0,43,-99.99,,,-99.99,,2013-04-26 15:53:00,
2013-04-26 12:03:00,67.0,41.0,30.40,NNE,19,2.0,-999.0,39,-99.99,,,-99.99,,2013-04-26 16:03:00,
2013-04-26 12:13:00,67.0,41.0,30.40,NNE,19,2.0,-999.0,39,-99.99,,,-99.99,,2013-04-26 16:13:00,
2013-04-26 12:23:00,66.0,39.0,30.40,SW,220,2.0,-999.0,37,-99.99,,,-99.99,,2013-04-26 16:23:00,
2013-04-26 12:33:00,67.0,43.0,30.39,NW,325,2.0,-999.0,42,-99.99,,,-99.99,,2013-04-26 16:33:00,
2013-04-26 12:42:00,67.0,43.0,30.39,NW,325,2.0,-999.0,42,-99.99,,,-99.99,,2013-04-26 16:42:00,
2013-04-26 12:52:00,68.0,43.0,30.39,SSW,196,2.0,-999.0,41,-99.99,,,-99.99,,2013-04-26 16:52:00,
2013-04-26 13:02:00,67.0,43.0,30.39,South,188,2.0,-999.0,41,-99.99,,,-99.99,,2013-04-26 17:02:00,
2013-04-26 13:12:00,67.0,43.0,30.39,South,188,2.0,-999.0,41,-99.99,,,-99.99,,2013-04-26 17:12:00,
2013-04-26 13:22:00,68.0,41.0,30.37,NNW,346,2.0,-999.0,38,-99.99,,,-99.99,,2013-04-26 17:22:00,
2013-04-26 13:32:00,69.0,43.0,30.37,North,360,2.0,-999.0,39,-99.99,,,-99.99,,2013-04-26 17:32:00,
2013-04-26 13:42:00,69.0,43.0,30.37,North,360,2.0,-999.0,39,-99.99,,,-99.99,,2013-04-26 17:42:00,
2013-04-26 13:52:00,69.0,46.0,30.36,East,82,1.0,-999.0,44,-99.99,,,-99.99,,2013-04-26 17:52:00,
2013-04-26 14:02:00,70.0,43.0,30.36,NW,309,2.0,-999.0,38,-99.99,,,-99.99,,2013-04-26 18:02:00,
2013-04-26 14:12:00,70.0,43.0,30.36,NW,309,2.0,-999.0,38,-99.99,,,-99.99,,2013-04-26 18:12:00,
2013-04-26 14:22:00,71.0,43.0,30.36,NW,317,1.0,-999.0,37,-99.99,,,-99.99,,2013-04-26 18:22:00,
2013-04-26 14:33:00,71.0,44.0,30.36,NW,305,2.0,-999.0,38,-99.99,,,-99.99,,2013-04-26 18:33:00,
2013-04-26 14:42:00,71.0,44.0,30.36,NW,305,2.0,-999.0,38,-99.99,,,-99.99,,2013-04-26 18:42:00,
2013-04-26 14:52:00,70.0,45.0,30.36,NW,326,2.0,-999.0,41,-99.99,,,-99.99,,2013-04-26 18:52:00,
2013-04-26 15:02:00,71.0,43.0,30.36,NNW,340,2.0,-999.0,37,-99.99,,,-99.99,,2013-04-26 19:02:00,
2013-04-26 15:12:00,71.0,43.0,30.36,NNW,340,2.0,-999.0,37,-99.99,,,-99.99,,2013-04-26 19:12:00,
2013-04-26 15:22:00,71.0,43.0,30.35,NNW,344,1.0,-999.0,37,-99.99,,,-99.99,,2013-04-26 19:22:00,
2013-04-26 15:32:00,71.0,42.0,30.34,WNW,300,2.0,-999.0,35,-99.99,,,-99.99,,2013-04-26 19:32:00,
2013-04-26 15:42:00,71.0,42.0,30.34,WNW,300,2.0,-999.0,35,-99.99,,,-99.99,,2013-04-26 19:42:00,
2013-04-26 15:52:00,70.0,42.0,30.34,NNW,336,2.0,-999.0,36,-99.99,,,-99.99,,2013-04-26 19:52:00,
2013-04-26 16:02:00,70.0,42.0,30.35,NW,318,1.0,-999.0,36,-99.99,,,-99.99,,2013-04-26 20:02:00,
2013-04-26 16:11:00,70.0,42.0,30.35,NW,318,1.0,-999.0,36,-99.99,,,-99.99,,2013-04-26 20:11:00,
2013-04-26 16:22:00,69.0,42.0,30.34,South,188,1.0,-999.0,37,-99.99,,,-99.99,,2013-04-26 20:22:00,
2013-04-26 16:32:00,69.0,42.0,30.34,NW,326,1.0,-999.0,37,-99.99,,,-99.99,,2013-04-26 20:32:00,
2013-04-26 16:42:00,69.0,42.0,30.34,NW,326,1.0,-999.0,37,-99.99,,,-99.99,,2013-04-26 20:42:00,
2013-04-26 16:52:00,69.0,42.0,30.34,WNW,298,2.0,-999.0,38,-99.99,,,-99.99,,2013-04-26 20:52:00,
2013-04-26 17:02:00,69.0,42.0,30.34,NNW,342,1.0,-999.0,37,-99.99,,,-99.99,,2013-04-26 21:02:00,
2013-04-26 17:11:00,69.0,42.0,30.34,NNW,342,1.0,-999.0,37,-99.99,,,-99.99,,2013-04-26 21:11:00,
2013-04-26 17:22:00,69.0,42.0,30.33,NNE,24,1.0,-999.0,37,-99.99,,,-99.99,,2013-04-26 21:22:00,
2013-04-26 17:33:00,68.0,40.0,30.33,NNW,331,1.0,-999.0,36,-99.99,,,-99.99,,2013-04-26 21:33:00,
2013-04-26 17:42:00,68.0,40.0,30.33,NNW,331,1.0,-999.0,36,-99.99,,,-99.99,,2013-04-26 21:42:00,
2013-04-26 17:53:00,67.0,41.0,30.33,WNW,302,1.0,-999.0,39,-99.99,,,-99.99,,2013-04-26 21:53:00,
2013-04-26 18:03:00,66.0,43.0,30.32,North,349,1.0,-999.0,44,-99.99,,,-99.99,,2013-04-26 22:03:00,
2013-04-26 18:12:00,66.0,43.0,30.32,North,349,1.0,-999.0,44,-99.99,,,-99.99,,2013-04-26 22:12:00,
2013-04-26 18:23:00,64.0,40.0,30.32,NW,311,1.0,-999.0,41,-99.99,,,-99.99,,2013-04-26 22:23:00,
2013-04-26 18:33:00,64.0,41.0,30.32,North,5,1.0,-999.0,43,-99.99,,,-99.99,,2013-04-26 22:33:00,
2013-04-26 18:42:00,64.0,41.0,30.32,North,5,1.0,-999.0,43,-99.99,,,-99.99,,2013-04-26 22:42:00,
2013-04-26 18:52:00,63.0,43.0,30.32,North,349,0.0,-999.0,48,-99.99,,,-99.99,,2013-04-26 22:52:00,
2013-04-26 19:02:00,63.0,40.0,30.32,North,355,0.0,-999.0,43,-99.99,,,-99.99,,2013-04-26 23:02:00,
2013-04-26 19:12:00,63.0,40.0,30.32,North,355,0.0,-999.0,43,-99.99,,,-99.99,,2013-04-26 23:12:00,
2013-04-26 19:21:00,62.0,40.0,30.32,North,355,0.0,-999.0,45,-99.99,,,-99.99,,2013-04-26 23:21:00,
2013-04-26 19:32:00,61.0,41.0,30.33,North,355,0.0,-999.0,47,-99.99,,,-99.99,,2013-04-26 23:32:00,
2013-04-26 19:42:00,61.0,41.0,30.33,North,355,0.0,-999.0,47,-99.99,,,-99.99,,2013-04-26 23:42:00,
2013-04-26 19:52:00,61.0,40.0,30.34,North,355,0.0,-999.0,45,-99.99,,,-99.99,,2013-04-26 23:52:00,
2013-04-26 20:01:00,60.0,39.0,30.33,North,355,0.0,-999.0,46,-99.99,,,-99.99,,2013-04-27 00:01:00,
2013-04-26 20:11:00,60.0,39.0,30.33,North,355,0.0,-999.0,46,-99.99,,,-99.99,,2013-04-27 00:11:00,
2013-04-26 20:21:00,59.0,39.0,30.34,North,355,0.0,-999.0,47,-99.99,,,-99.99,,2013-04-27 00:21:00,
2013-04-26 20:32:00,58.0,40.0,30.34,North,355,0.0,-999.0,51,-99.99,,,-99.99,,2013-04-27 00:32:00,
2013-04-26 20:42:00,58.0,40.0,30.34,North,355,0.0,-999.0,51,-99.99,,,-99.99,,2013-04-27 00:42:00,
2013-04-26 20:51:00,57.0,41.0,30.35,North,355,0.0,-999.0,55,-99.99,,,-99.99,,2013-04-27 00:51:00,
2013-04-26 21:01:00,55.0,41.0,30.35,North,355,0.0,-999.0,58,-99.99,,,-99.99,,2013-04-27 01:01:00,
2013-04-26 21:12:00,55.0,41.0,30.35,North,355,0.0,-999.0,58,-99.99,,,-99.99,,2013-04-27 01:12:00,
2013-04-26 21:21:00,54.0,41.0,30.37,North,355,0.0,-999.0,62,-99.99,,,-99.99,,2013-04-27 01:21:00,
2013-04-26 21:32:00,53.0,42.0,30.37,North,355,0.0,-999.0,65,-99.99,,,-99.99,,2013-04-27 01:32:00,
2013-04-26 21:42:00,53.0,42.0,30.37,North,355,0.0,-999.0,65,-99.99,,,-99.99,,2013-04-27 01:42:00,
2013-04-26 21:52:00,51.0,40.0,30.37,North,355,0.0,-999.0,67,-99.99,,,-99.99,,2013-04-27 01:52:00,
2013-04-26 22:02:00,51.0,41.0,30.37,North,355,0.0,-999.0,69,-99.99,,,-99.99,,2013-04-27 02:02:00,
2013-04-26 22:11:00,51.0,41.0,30.37,North,355,0.0,-999.0,69,-99.99,,,-99.99,,2013-04-27 02:11:00,
2013-04-26 22:22:00,50.0,41.0,30.38,North,355,0.0,-999.0,71,-99.99,,,-99.99,,2013-04-27 02:22:00,
2013-04-26 22:32:00,49.0,40.0,30.38,North,355,0.0,-999.0,72,-99.99,,,-99.99,,2013-04-27 02:32:00,
2013-04-26 22:42:00,49.0,40.0,30.38,North,355,0.0,-999.0,72,-99.99,,,-99.99,,2013-04-27 02:42:00,
2013-04-26 22:52:00,48.0,41.0,30.38,North,355,0.0,-999.0,76,-99.99,,,-99.99,,2013-04-27 02:52:00,
2013-04-26 23:02:00,48.0,41.0,30.38,North,355,0.0,-999.0,76,-99.99,,,-99.99,,2013-04-27 03:02:00,
2013-04-26 23:11:00,48.0,41.0,30.38,North,355,0.0,-999.0,76,-99.99,,,-99.99,,2013-04-27 03:11:00,
2013-04-26 23:22:00,47.0,40.0,30.38,North,355,0.0,-999.0,77,-99.99,,,-99.99,,2013-04-27 03:22:00,
2013-04-26 23:33:00,46.0,40.0,30.38,North,355,0.0,-999.0,80,-99.99,,,-99.99,,2013-04-27 03:33:00,
2013-04-26 23:43:00,46.0,40.0,30.38,North,355,0.0,-999.0,80,-99.99,,,-99.99,,2013-04-27 03:43:00,
2013-04-26 23:53:00,46.0,41.0,30.37,North,355,0.0,-999.0,82,-99.99,,,-99.99,,2013-04-27 03:53:00,